Location: Capon Springs and Farms
(39.1310°N, 78.4814°W)
Time: 06:13:48
(UTC-04:00)

N. Korean satellite - Visible Passes

Search period start: 23 October 2019 00:00
Search period end: 02 November 2019 00:00
Orbit: 455 x 508 km, 97.2° (Epoch: 22 October)

Date Brightness Start Highest point End Pass type
(mag) Time Alt. Az. Time Alt. Az. Time Alt. Az.
24 Oct 7.2 06:59:29 10° NNE 07:03:07 65° E 07:06:47 10° S visible
24 Oct 9.6 19:07:56 10° SW 19:10:35 21° W 19:13:16 10° NW visible
25 Oct 8.9 06:34:30 10° NE 06:37:45 29° E 06:41:01 10° SSE visible
25 Oct 7.8 18:41:52 10° S 18:45:10 46° W 18:48:31 10° NNW visible
26 Oct 10.2 06:10:14 10° ENE 06:12:19 14° E 06:14:24 10° SE visible
27 Oct 10.2 19:26:34 10° WSW 19:28:07 13° W 19:29:41 10° WNW visible
28 Oct 7.7 06:51:39 10° NNE 06:55:14 50° E 06:58:51 10° S visible
28 Oct 9.1 18:59:41 10° SSW 19:02:38 26° W 19:05:38 10° NW visible
29 Oct 9.3 06:26:48 10° NE 06:29:51 24° E 06:32:53 10° SSE visible
30 Oct 10.3 06:02:59 10° ENE 06:04:22 12° E 06:05:44 10° ESE visible
31 Oct 6.7 07:08:57 10° NNE 07:12:40 90° ESE 07:16:23 10° SSW visible
31 Oct 9.9 19:17:55 10° SW 19:20:07 16° W 19:22:21 10° NW visible
01 Nov 8.2 06:43:48 10° NNE 06:47:19 40° E 06:50:50 10° S visible
01 Nov 8.5 18:51:29 10° SSW 18:54:39 33° W 18:57:53 10° NNW visible
